Location: Fenile
(46.0500°N, 9.5500°E)
Time: 19:51:36
(UTC+00:00)

Meteor 1-27 Rocket - Pass Details

Date: 03 March 2021
Orbit: 830 x 909 km, 81.3° (Epoch: 13 April)

Event Time Altitude Azimuth Distance (km) Brightness Sun altitude
Rises 17:34:24 0° 345° (NNW) 3,386 7.0 -4.8°
Reaches altitude 10° 17:36:50 10° 342° (NNW) 2,448 6.3 -5.3°
Maximum altitude 17:42:14 58° 265° (W) 971 4.5 -6.2°
Drops below altitude 10° 17:47:39 10° 187° (S) 2,449 6.2 -7.1°
Sets 17:50:05 0° 183° (S) 3,388 6.9 -7.5°
